Weather History for KHUM - March, 2013

Change the Weather History Date:

Tuesday, March 12, 2013

  Actual Average Record
Temperature  
Mean Temperature 53 °F -  
Max Temperature 64 °F 70 °F 84 °F (1940)
Min Temperature 42 °F 54 °F 32 °F (1983)
Degree Days  
Heating Degree Days 12    
Growing Degree Days 3 (Base 50)    
Moisture  
Dew Point 42 °F    
Average Humidity 73    
Maximum Humidity 90    
Minimum Humidity 34    
Precipitation  
Precipitation 0.00 in - - ()
Sea Level Pressure  
Sea Level Pressure 30.12 in    
Wind  
Wind Speed 6 mph (NW)    
Max Wind Speed 12 mph    
Max Gust Speed -    
Visibility 8 miles    
Events      
Averages and records for this station are not official NWS values.
T = Trace of Precipitation, MM = Missing Value Source: NWS Daily Summary

Daily Weather History Graph

Daily Weather History Graph

Search for Another Location

Airport or City:

Trip Planner

Search our weather history database for the weather conditions in past years. The results will help you decide how hot, cold, wet, or windy it might be!

Date:

Astronomy

Mar. 12, 2013 Rise Set
Actual Time 7:15 AM CDT 7:09 PM CDT
Civil Twilight 6:51 AM CDT 7:33 PM CDT
Nautical Twilight 6:24 AM CDT 8:00 PM CDT
Astronomical Twilight 5:56 AM CDT 8:28 PM CDT
Moon 7:29 AM CDT (3/12) 8:15 PM CDT (3/12)
Length of Visible Light 12h 41m
Length of Day
11h 53m
New Moon, 1% of the Moon is Illuminated
Mar 12
New Moon
Mar 19
First Quarter
Mar 27
Full
Apr 2
Last Quarter
Apr 10
New

Hourly Weather History & Observations

Time (CDT) Temp. Windchill Dew Point Humidity Pressure Visibility Wind Dir Wind Speed Gust Speed Precip Events Conditions
12:15 AM 46.4 °F 42.9 °F 40.1 °F 79% 30.04 in 7.0 mi NW 6.9 mph - N/A   Clear
12:35 AM 46.6 °F - 40.3 °F 79% 30.05 in 10.0 mi NW 4.6 mph - N/A   Clear
12:55 AM 45.9 °F 42.3 °F 40.5 °F 81% 30.05 in 7.0 mi WNW 6.9 mph - N/A   Clear
1:15 AM 45.7 °F 42.0 °F 40.3 °F 81% 30.05 in 10.0 mi WNW 6.9 mph - N/A   Clear
1:35 AM 46.9 °F - 40.1 °F 77% 30.05 in 7.0 mi WNW 8.1 mph - N/A   Clear
1:55 AM 46.0 °F 42.5 °F 40.1 °F 80% 30.06 in 7.0 mi NW 6.9 mph - N/A   Clear
2:15 AM 45.7 °F 42.0 °F 39.6 °F 79% 30.06 in 7.0 mi NW 6.9 mph - N/A   Clear
2:35 AM 46.2 °F 42.7 °F 39.6 °F 78% 30.06 in 7.0 mi NW 6.9 mph - N/A   Clear
2:55 AM 45.9 °F 42.3 °F 39.7 °F 79% 30.05 in 10.0 mi NNW 6.9 mph - N/A   Clear
3:15 AM 44.2 °F 41.8 °F 39.6 °F 84% 30.06 in 7.0 mi NW 4.6 mph - N/A   Clear
3:35 AM 43.5 °F 40.9 °F 39.6 °F 86% 30.06 in 10.0 mi NW 4.6 mph - N/A   Clear
4:15 AM 43.7 °F 41.1 °F 40.1 °F 87% 30.06 in 7.0 mi NW 4.6 mph - N/A   Clear
4:35 AM 43.5 °F 40.9 °F 40.1 °F 88% 30.07 in 7.0 mi NW 4.6 mph - N/A   Clear
5:15 AM 42.8 °F 40.1 °F 39.7 °F 89% 30.07 in 7.0 mi NW 4.6 mph - N/A   Clear
5:35 AM 42.8 °F 40.1 °F 39.7 °F 89% 30.08 in 7.0 mi NW 4.6 mph - N/A   Clear
5:48 AM 44.6 °F 40.2 °F 39.2 °F 81% 30.10 in 7.0 mi NW 8.1 mph - N/A   Clear
5:55 AM 42.6 °F 40.9 °F 39.7 °F 90% 30.09 in 7.0 mi NW 3.5 mph - N/A   Clear
6:48 AM 44.6 °F 40.2 °F 39.2 °F 81% 30.10 in 7.0 mi NW 8.1 mph - N/A   Clear
6:50 AM 42.8 °F 41.1 °F 39.2 °F 87% 30.11 in 7.0 mi WNW 3.5 mph - N/A   Scattered Clouds
7:50 AM 44.6 °F 43.1 °F 39.2 °F 81% 30.12 in 7.0 mi NW 3.5 mph - N/A   Scattered Clouds
8:51 AM 46.4 °F 42.4 °F 42.8 °F 87% 30.16 in 7.0 mi NNW 8.1 mph - N/A   Scattered Clouds
9:48 AM 51.8 °F - 42.8 °F 71% 30.18 in 7.0 mi NNE 10.4 mph - N/A   Scattered Clouds
10:52 AM 53.6 °F - 42.8 °F 67% 30.18 in 7.0 mi North 11.5 mph - N/A   Scattered Clouds
11:50 AM 57.2 °F - 39.2 °F 51% 30.18 in 7.0 mi North 11.5 mph - N/A   Scattered Clouds
12:48 PM 59.0 °F - 39.2 °F 48% 30.18 in 7.0 mi North 5.8 mph - N/A   Scattered Clouds
1:48 PM 60.8 °F - 41.0 °F 48% 30.16 in 7.0 mi North 5.8 mph - N/A   Scattered Clouds
2:50 PM 62.6 °F - 39.2 °F 42% 30.13 in 7.0 mi North 5.8 mph - N/A   Scattered Clouds
3:50 PM 64.4 °F - 35.6 °F 34% 30.13 in 7.0 mi NNW 5.8 mph - N/A   Scattered Clouds
4:50 PM 64.4 °F - 35.6 °F 34% 30.12 in 7.0 mi NW 5.8 mph - N/A   Clear
5:50 PM 64.4 °F - 39.2 °F 40% 30.13 in 7.0 mi NW 5.8 mph - N/A   Clear
6:50 PM 62.6 °F - 39.2 °F 42% 30.15 in 7.0 mi NW 5.8 mph - N/A   Clear
7:15 PM 61.2 °F - 40.5 °F 47% 30.15 in 7.0 mi NW 3.5 mph - N/A   Clear
7:35 PM 56.7 °F - 41.9 °F 58% 30.15 in 10.0 mi Calm Calm - N/A   Clear
7:55 PM 58.5 °F - 46.2 °F 64% 30.16 in 7.0 mi Calm Calm - N/A   Clear
8:15 PM 56.1 °F - 46.8 °F 71% 30.17 in 10.0 mi Calm Calm - N/A   Clear
8:35 PM 54.0 °F - 46.6 °F 76% 30.17 in 10.0 mi Calm Calm - N/A   Clear
8:55 PM 54.0 °F - 46.8 °F 77% 30.18 in 10.0 mi Calm Calm - N/A   Clear
9:15 PM 52.2 °F - 46.8 °F 82% 30.19 in 10.0 mi SW 5.8 mph - N/A   Clear
9:35 PM 52.2 °F - 47.3 °F 83% 30.20 in 7.0 mi WSW 4.6 mph - N/A   Clear
10:15 PM 52.7 °F - 48.2 °F 85% 30.21 in 7.0 mi WSW 3.5 mph - N/A   Clear
11:15 PM 50.9 °F - 47.5 °F 88% 30.22 in 7.0 mi Calm Calm - N/A   Clear
11:35 PM 51.1 °F - 47.8 °F 89% 30.23 in 10.0 mi West 3.5 mph - N/A   Clear
11:55 PM 51.1 °F - 46.6 °F 85% 30.23 in 7.0 mi WSW 3.5 mph - N/A   Clear